This is the latest recevied weather packets stored in our database for station/object SR9SMR. If no packets are shown the sender has not sent any weather packets the latest 10 day(s).
| Time | Temp. | Humidity | Pressure | Rain* | Wind** | Luminosity | Snow |
|---|---|---|---|---|---|---|---|
| 1777802764 | 14.44° C | 100% | 905.5 hPa | - | - | - | - |
| 1777802628 | 14.44° C | 100% | 905.1 hPa | - | - | - | - |
| 1777802390 | 14.44° C | 100% | 904.9 hPa | - | - | - | - |
| 1777802264 | 14.44° C | 100% | 904.8 hPa | - | - | - | - |
| 1777802143 | 14.44° C | 100% | 905 hPa | - | - | - | - |
| 1777802047 | 14.44° C | 100% | 904.9 hPa | - | - | - | - |
| 1777801743 | 13.89° C | 100% | 905.1 hPa | - | - | - | - |
| 1777801546 | 14.44° C | 100% | 905.5 hPa | - | - | - | - |
| 1777801235 | 13.33° C | 100% | 904.6 hPa | - | - | - | - |
| 1777800925 | 13.89° C | 100% | 905.2 hPa | - | - | - | - |
| 1777800778 | 13.89° C | 100% | 905.2 hPa | - | - | - | - |
| 1777800583 | 13.89° C | 100% | 905.7 hPa | - | - | - | - |
| 1777800271 | 13.33° C | 100% | 905.1 hPa | - | - | - | - |
| 1777799962 | 13.89° C | 100% | 904.9 hPa | - | - | - | - |
| 1777799668 | 13.33° C | 100% | 905.4 hPa | - | - | - | - |
| 1777799574 | 13.33° C | 100% | 905.4 hPa | - | - | - | - |
| 1777799271 | 13.33° C | 100% | 905.4 hPa | - | - | - | - |
| 1777799176 | 12.78° C | 100% | 905.4 hPa | - | - | - | - |
| 1777798873 | 13.33° C | 100% | 905.2 hPa | - | - | - | - |
| 1777798742 | 13.33° C | 100% | 904.9 hPa | - | - | - | - |
| 1777798589 | 12.78° C | 100% | 905.3 hPa | - | - | - | - |
| 1777798492 | 13.33° C | 100% | 905.3 hPa | - | - | - | - |
| 1777798280 | 13.33° C | 100% | 905.1 hPa | - | - | - | - |
| 1777798145 | 13.33° C | 100% | 905.2 hPa | - | - | - | - |
| 1777798051 | 13.33° C | 100% | 905.8 hPa | - | - | - | - |
* Rain since midnight (hover to see other rain measurements)
** Current wind speed in m/s (hover to see current wind gust speed)